| time (UTC) | temp C | wind direction | speed KPH | gust KPH | rain 1hr cm | rain 24hr cm | rain mn cm | humidity % | barometer mb |
| 20260503195743 | 23 | 223 | 19.3 | 38.6 | 0.00 | 0.00 | 0.00 | 26 | 1005.3 |
| 20260503194744 | 23 | 236 | 24.1 | 33.8 | 0.00 | 0.00 | 0.00 | 28 | 1005.4 |
| 20260503193746 | 22 | 217 | 25.7 | 37.0 | 0.00 | 0.00 | 0.00 | 29 | 1005.9 |
| 20260503192753 | 22 | 240 | 24.1 | 51.5 | 0.00 | 0.00 | 0.00 | 29 | 1006.1 |
| 20260503191754 | 22 | 244 | 22.5 | 30.6 | 0.00 | 0.00 | 0.00 | 28 | 1006.3 |
| 20260503190754 | 22 | 241 | 8.0 | 30.6 | 0.00 | 0.00 | 0.00 | 30 | 1006.6 |
| 20260503185755 | 22 | 216 | 25.7 | 29.0 | 0.00 | 0.00 | 0.00 | 30 | 1006.7 |
| 20260503184741 | 22 | 264 | 25.7 | 33.8 | 0.00 | 0.00 | 0.00 | 31 | 1007.2 |
| 20260503183742 | 21 | 212 | 9.7 | 30.6 | 0.00 | 0.00 | 0.00 | 31 | 1007.5 |
| 20260503182806 | 21 | 271 | 22.5 | 32.2 | 0.00 | 0.00 | 0.00 | 30 | 1007.8 |
| 20260503181805 | 21 | 254 | 24.1 | 29.0 | 0.00 | 0.00 | 0.00 | 33 | 1008.1 |
| 20260503180744 | 21 | 285 | 20.9 | 37.0 | 0.00 | 0.00 | 0.00 | 33 | 1008.2 |
| 20260503175748 | 20 | 258 | 20.9 | 30.6 | 0.00 | 0.00 | 0.00 | 32 | 1008.6 |
| 20260503174749 | 20 | 206 | 24.1 | 30.6 | 0.00 | 0.00 | 0.00 | 31 | 1008.7 |
| 20260503173748 | 20 | 238 | 19.3 | 30.6 | 0.00 | 0.00 | 0.00 | 32 | 1008.8 |
| 20260503172749 | 20 | 264 | 22.5 | 30.6 | 0.00 | 0.00 | 0.00 | 36 | 1008.9 |
| 20260503171753 | 20 | 273 | 24.1 | 30.6 | 0.00 | 0.00 | 0.00 | 39 | 1009.0 |
| 20260503170754 | 20 | 251 | 16.1 | 27.4 | 0.00 | 0.00 | 0.00 | 39 | 1009.1 |
| 20260503150758 | 12 | 211 | 1.6 | 6.4 | 0.00 | 0.00 | 0.00 | 52 | 1011.3 |
| 20260503130749 | 3 | 317 | 0.0 | 9.7 | 0.00 | 0.00 | 0.00 | 79 | 1012.2 |
| 20260503110743 | 0 | 317 | 0.0 | 3.2 | 0.00 | 0.00 | 0.00 | 81 | 1012.7 |
| 20260503080746 | 3 | 302 | 1.6 | 3.2 | 0.00 | 0.00 | 0.00 | 75 | 1013.3 |
| 20260503072738 | 4 | 301 | 0.0 | 4.8 | 0.00 | 0.00 | 0.00 | 75 | 1013.5 |
| 20260503071746 | 4 | 301 | 4.8 | 6.4 | 0.00 | 0.00 | 0.00 | 75 | 1013.5 |
| 20260503070746 | 4 | 302 | 4.8 | 6.4 | 0.00 | 0.00 | 0.00 | 75 | 1013.6 |
| 20260503054752 | 5 | 301 | 3.2 | 4.8 | 0.00 | 0.00 | 0.00 | 71 | 1013.6 |
| 20260503053755 | 6 | 302 | 1.6 | 4.8 | 0.00 | 0.00 | 0.00 | 71 | 1013.6 |
| 20260503052755 | 6 | 302 | 3.2 | 6.4 | 0.00 | 0.00 | 0.00 | 72 | 1013.7 |
| 20260503051743 | 6 | 302 | 0.0 | 1.6 | 0.00 | 0.00 | 0.00 | 70 | 1013.7 |
| 20260503050807 | 6 | 301 | 1.6 | 3.2 | 0.00 | 0.00 | 0.00 | 69 | 1013.7 |
| 20260503045746 | 6 | 301 | 0.0 | 4.8 | 0.00 | 0.00 | 0.00 | 69 | 1013.7 |
| 20260503044809 | 7 | 302 | 1.6 | 1.6 | 0.00 | 0.00 | 0.00 | 65 | 1013.7 |
| 20260503043809 | 7 | 302 | 0.0 | 3.2 | 0.00 | 0.00 | 0.00 | 65 | 1013.8 |
| 20260503042808 | 7 | 302 | 1.6 | 4.8 | 0.00 | 0.00 | 0.00 | 66 | 1013.7 |
| 20260503041751 | 8 | 302 | 3.2 | 4.8 | 0.00 | 0.00 | 0.00 | 66 | 1013.6 |
| 20260503040750 | 8 | 302 | 3.2 | 3.2 | 0.00 | 0.00 | 0.00 | 63 | 1013.7 |
| 20260503035816 | 8 | 301 | 1.6 | 4.8 | 0.00 | 0.00 | 0.00 | 62 | 1013.6 |
| 20260503034755 | 9 | 302 | 3.2 | 3.2 | 0.00 | 0.00 | 0.00 | 62 | 1013.6 |
| 20260503033742 | 10 | 302 | 1.6 | 4.8 | 0.00 | 0.00 | 0.00 | 60 | 1013.6 |
| 20260503032744 | 10 | 302 | 1.6 | 1.6 | 0.00 | 0.00 | 0.00 | 58 | 1013.6 |
| 20260503031744 | 11 | 302 | 0.0 | 3.2 | 0.00 | 0.00 | 0.00 | 56 | 1013.7 |
| 20260503030745 | 11 | 301 | 0.0 | 1.6 | 0.00 | 0.00 | 0.00 | 55 | 1013.6 |
| 20260503025746 | 11 | 302 | 0.0 | 3.2 | 0.00 | 0.00 | 0.00 | 56 | 1013.6 |
| 20260503024750 | 12 | 302 | 3.2 | 3.2 | 0.00 | 0.00 | 0.00 | 51 | 1013.5 |
| 20260503023814 | 12 | 302 | 0.0 | 3.2 | 0.00 | 0.00 | 0.00 | 50 | 1013.3 |
| 20260503022757 | 12 | 302 | 3.2 | 3.2 | 0.00 | 0.00 | 0.00 | 50 | 1013.3 |
| 20260503021756 | 13 | 302 | 1.6 | 3.2 | 0.00 | 0.00 | 0.00 | 49 | 1013.2 |
| 20260503020744 | 14 | 302 | 3.2 | 3.2 | 0.00 | 0.00 | 0.00 | 48 | 1013.1 |
| 20260503015744 | 15 | 302 | 0.0 | 3.2 | 0.00 | 0.00 | 0.00 | 44 | 1013.1 |
| 20260503014745 | 16 | 302 | 1.6 | 1.6 | 0.00 | 0.00 | 0.00 | 39 | 1013.0 |
| 20260503013750 | 16 | 302 | 1.6 | 4.8 | 0.00 | 0.00 | 0.00 | 38 | 1013.0 |
| 20260503012751 | 16 | 301 | 3.2 | 6.4 | 0.00 | 0.00 | 0.00 | 37 | 1013.1 |
| 20260503011756 | 17 | 302 | 3.2 | 8.0 | 0.00 | 0.00 | 0.00 | 36 | 1013.1 |
| 20260503010820 | 17 | 300 | 8.0 | 16.1 | 0.00 | 0.00 | 0.00 | 34 | 1013.1 |
| 20260503005739 | 18 | 312 | 16.1 | 17.7 | 0.00 | 0.00 | 0.00 | 33 | 1013.2 |
| 20260503004744 | 18 | 304 | 14.5 | 22.5 | 0.00 | 0.00 | 0.00 | 33 | 1013.2 |
| 20260503003750 | 18 | 298 | 16.1 | 22.5 | 0.00 | 0.00 | 0.00 | 32 | 1013.3 |
| 20260503002749 | 18 | 292 | 16.1 | 29.0 | 0.00 | 0.00 | 0.00 | 32 | 1013.4 |
| 20260503001751 | 18 | 293 | 16.1 | 22.5 | 0.00 | 0.00 | 0.00 | 31 | 1013.5 |
| 20260503000750 | 18 | 284 | 8.0 | 19.3 | 0.00 | 0.00 | 0.00 | 31 | 1013.6 |
| 20260502235750 | 18 | 302 | 19.3 | 25.7 | 0.00 | 0.00 | 0.00 | 31 | 1013.5 |
| 20260502234753 | 18 | 281 | 14.5 | 27.4 | 0.00 | 0.00 | 0.00 | 31 | 1013.6 |
| 20260502233754 | 19 | 261 | 17.7 | 25.7 | 0.00 | 0.00 | 0.00 | 30 | 1013.7 |
| 20260502232759 | 18 | 292 | 22.5 | 27.4 | 0.00 | 0.00 | 0.00 | 31 | 1013.8 |
| 20260502231759 | 18 | 306 | 20.9 | 33.8 | 0.00 | 0.00 | 0.00 | 31 | 1013.9 |
| 20260502230744 | 18 | 321 | 16.1 | 20.9 | 0.00 | 0.00 | 0.00 | 32 | 1013.9 |
| 20260502225743 | 18 | 331 | 19.3 | 29.0 | 0.00 | 0.00 | 0.00 | 31 | 1013.7 |
| 20260502224744 | 19 | 275 | 16.1 | 29.0 | 0.00 | 0.00 | 0.00 | 33 | 1013.9 |
| 20260502223747 | 19 | 318 | 19.3 | 32.2 | 0.00 | 0.00 | 0.00 | 31 | 1013.9 |
| 20260502222808 | 18 | 300 | 20.9 | 45.1 | 0.00 | 0.00 | 0.00 | 31 | 1014.0 |
| 20260502221752 | 18 | 302 | 11.3 | 25.7 | 0.00 | 0.00 | 0.00 | 31 | 1014.0 |
| 20260502220752 | 19 | 301 | 22.5 | 29.0 | 0.00 | 0.00 | 0.00 | 31 | 1014.1 |
| 20260502215755 | 18 | 309 | 14.5 | 27.4 | 0.00 | 0.00 | 0.00 | 32 | 1014.3 |
| 20260502214756 | 19 | 273 | 27.4 | 29.0 | 0.00 | 0.00 | 0.00 | 32 | 1014.3 |
| 20260502213743 | 20 | 306 | 24.1 | 32.2 | 0.00 | 0.00 | 0.00 | 31 | 1014.3 |
| 20260502212748 | 19 | 286 | 16.1 | 37.0 | 0.00 | 0.00 | 0.00 | 31 | 1014.4 |
| 20260502211808 | 19 | 309 | 24.1 | 33.8 | 0.00 | 0.00 | 0.00 | 32 | 1014.5 |
| 20260502210747 | 20 | 329 | 17.7 | 33.8 | 0.00 | 0.00 | 0.00 | 32 | 1014.4 |
| 20260502205747 | 19 | 319 | 16.1 | 30.6 | 0.00 | 0.00 | 0.00 | 33 | 1014.8 |
| 20260502204752 | 18 | 292 | 22.5 | 30.6 | 0.00 | 0.00 | 0.00 | 33 | 1014.8 |
| 20260502203812 | 18 | 312 | 16.1 | 22.5 | 0.00 | 0.00 | 0.00 | 34 | 1014.9 |
| 20260502202751 | 18 | 309 | 17.7 | 37.0 | 0.00 | 0.00 | 0.00 | 34 | 1014.9 |
| 20260502201817 | 19 | 321 | 27.4 | 35.4 | 0.00 | 0.00 | 0.00 | 32 | 1014.9 |
| 20260502200755 | 19 | 284 | 33.8 | 46.7 | 0.00 | 0.00 | 0.00 | 33 | 1014.9 |